Погода в Пакенхеме

Австралия     38°04′17″S   145°28′53″E
темп.,
°C
ветер,
м/с
пор.,
м/с
влажн.,
%
обл.,
%
осадки,
мм/ч
давл.,
гПа
погр.,
м
29 января, пт
пт2923:00+17в2874100 0.1 1016339
02:00+15в148235 0.0 1015157
05:00+15в128568 0.1 101483
08:00+14юв1197100 2.2 101455
11:00+15в1298100 3.5 1012130
14:00+16всв1299100 10.2 1010195
17:00+18св1897100 12.6 1009552
20:00+17св1399100 2.0 1009126
30 января, сб
сб3023:00+17ссв299788 2.1 1009300
02:00+17сз159887 0.3 1008195
05:00+16з269993 4.7 1009370
08:00+15зсз2698100 4.7 1011426
11:00+17з2585100 4.9 1012727
14:00+18юз3471100 0.1 1012847
17:00+18ююз3566100 0.2 10121067
20:00+15ююз258084 0.1 1014596
31 января, вс
вс3123:00+14ююз148485 0.1 1016311
02:00+14ююв138397 0.0 1016137
05:00+10вюв129858 0.0 101651
08:00+13юв148190 0.0 1017394
11:00+17ююв236293 0.0 1018918
14:00+21ю335118 0.0 1016897
17:00+20ююз355711 0.0 1014655
20:00+16ю26730 0.0 1015430
1 февраля, пн
пн123:00+11зсз01970 0.0 101522
02:00+11с12990 0.0 101331
05:00+10с12981 0.0 101232
08:00+14с11842 0.0 101172
11:00+27сз28441 0.0 10091385
14:00+30ссз4123557 0.0 10062906
17:00+30сз393370 0.0 10022781
20:00+21ююз245942 0.0 1002196
2 февраля, вт
вт223:00+14зюз178824 0.0 1004437
02:00+14сз128273 0.1 1002104
05:00+11зсз3109281 1.7 1003951
08:00+11зсз499162 0.4 1004996
11:00+16зсз5115061 1.2 10041788
14:00+14зсз5136198 0.4 10031655
17:00+17зюз596276 1.9 10031581
20:00+13з298183 0.9 10061010